User: anonymous   Login
Location: Góry Miechowskie
(50.3599°N, 20.1803°E)
Time: 11:57:50
(UTC+00:00)
Language:

Transit 4A - Orbit

View from above orbital plane
View from above orbital plane
View from above satellite
View from above satellite

Ground track
Ground track

The orbit data is extracted from the following two-line orbital elements,

1 00116U 61015A   24250.57114495  .00000285  00000-0  27667-3 0  9996
2 00116  66.8110  37.7124 0074465   2.6986 357.4480 13.92090989206417
Epoch (UTC): 06 September 2024 13:42:26
Eccentricity: 0.0074465
inclination: 66.8110°
perigee height: 867 km
apogee height: 975 km
right ascension of ascending node: 37.7124°
argument of perigee: 2.6986°
revolutions per day: 13.92090989
mean anomaly at epoch: 357.4480°
orbit number at epoch: 20641

The dashed part of the orbit path shows where the satellite is in the earth's shadow,  

DLR